Hourly Data Report for September 07, 2017

All times are specified in Local Standard Time (LST). Add 1 hour to adjust for Daylight Saving Time where and when it is observed.

BUCTOUCHE CDA CS
NEW BRUNSWICK

46°25'49.006" N
64°46'05.009" W
35.90 m
8100593
71666
ABT

Download Data

Hourly Data (September 2017)
Hourly Data Report for September 7, 2017
Temp Definition
°C
Dew Point Temp Definition
°C
Rel Hum Definition
%
Wind Dir Definition
10's deg

Wind Spd Definition
km/h
Visibility Definition
km
Stn Press Definition
kPa
Hmdx Definition


Wind Chill Definition


Weather Definition


TIME
00:00 19.3 18.2 94 14 8   101.02     LegendNANA
01:00 19.4 18.5 94 14 11   100.96     LegendNANA
02:00 19.8 18.7 93 16 13   100.94     LegendNANA
03:00 19.6 18.5 94 16 10   100.89     LegendNANA
04:00 19.6 18.6 94 15 13   100.84     LegendNANA
05:00 20.0 19.0 94 14 15   100.74 27   LegendNANA
06:00 20.3 19.3 94 15 15   100.68 27   LegendNANA
07:00 20.7 19.7 94 15 12   100.58 28   LegendNANA
08:00 21.0 19.8 93 15 17   100.46 28   LegendNANA
09:00 20.9 19.8 94 15 17   100.41 28   LegendNANA
10:00 21.3 20.0 92 16 16   100.33 29   LegendNANA
11:00 21.3 20.1 93 16 14   100.31 29   LegendNANA
12:00 21.5 19.9 91 17 16   100.19 29   LegendNANA
13:00 22.5 20.4 88 16 14   100.14 30   LegendNANA
14:00 24.1 20.6 81 18 18   100.04 32   LegendNANA
15:00 23.7 20.1 80 19 16   100.05 31   LegendNANA
16:00 23.1 18.1 74 19 18   100.02 29   LegendNANA
17:00 21.8 17.1 75 19 14   100.04 27   LegendNANA
18:00 20.4 15.6 74 19 16   100.08 25   LegendNANA
19:00 19.1 14.9 77 20 15   100.13     LegendNANA
20:00 17.9 14.5 81 20 18   100.23     LegendNANA
21:00 16.3 14.1 87 21 15   100.31     LegendNANA
22:00 15.3 13.4 89 21 12   100.35     LegendNANA
23:00 14.5 12.8 89 21 11   100.39     LegendNANA

Notes on Data Quality.

Legend

  • E = Estimated
  • M = Missing
  • NA = Not Available
  • ‡ = Partner data that is not subject to review by the National Climate Archives
Date modified: